Wind_Speed
51 53 55 55 54 54 54 54 53 52 52 50 49 48 46 44 42 40 39 38 38 38 38 40 41 41 41 41 42 42 43 45 46 49 51 53 55 56 58 59 60 60 60 61 62 63 64 66 68 70 71 73 75 77 78 79 79 80 81 81 80 79 78 77 76 77 77 78 79 79 80 80 81 81 81 82 82 83 84 84 84 84 84 85 85 86 87 88
50 53 55 54 54 53 53 53 53 53 52 50 47 46 44 41 39 38 37 36 37 37 38 39 40 41 41 42 42 43 45 47 49 51 53 54 56 57 58 58 59 60 61 61 62 64 66 68 70 72 74 76 77 78 78 79 80 79 78 77 76 75 75 75 76 76 76 76 76 76 76 76 77 77 78 79 80 81 82 82 82 82 83 84 84 85 85 86
50 53 54 54 53 51 51 51 51 50 49 47 45 43 41 39 38 38 37 37 37 37 37 39 40 41 41 42 43 45 47 49 51 52 54 55 56 57 58 59 59 60 61 62 64 66 68 71 73 74 76 77 77 78 79 78 76 75 74 74 74 74 74 74 73 73 72 72 71 72 72 72 73 74 75 77 78 79 80 80 80 81 82 83 83 84 85 86
51 52 52 52 51 50 49 49 48 46 45 43 42 41 40 39 39 39 38 38 37 37 38 39 40 40 42 43 45 47 48 50 52 53 55 56 57 58 58 59 59 60 62 64 66 69 71 73 74 75 76 77 77 76 75 74 73 73 72 72 72 71 70 69 68 68 67 67 67 68 68 69 70 71 73 74 76 76 77 77 79 80 81 82 83 83 84 85
51 53 50 48 49 50 48 47 45 44 42 41 40 40 39 39 38 38 38 38 37 38 39 40 41 42 43 44 46 48 49 50 52 54 55 56 57 58 58 59 60 61 63 66 69 71 72 73 74 75 75 74 73 71 71 71 70 69 68 67 66 65 64 64 64 63 64 63 64 65 66 67 68 70 72 74 75 75 75 77 78 80 80 81 82 83 84 84
51 52 50 47 46 47 47 44 43 42 42 41 40 39 39 39 38 38 38 38 39 40 41 42 42 43 44 45 46 48 49 51 53 54 55 56 57 57 58 59 61 63 66 68 70 71 72 73 73 72 71 70 69 68 67 66 64 63 62 61 60 60 60 60 61 61 62 62 63 64 65 67 68 70 72 74 75 74 74 76 77 79 79 81 82 83 84 85
51 50 49 47 44 44 45 44 43 42 42 41 41 40 40 40 40 40 40 41 42 42 43 43 43 43 44 46 47 49 50 52 53 54 55 55 56 57 58 61 63 66 68 69 70 71 71 70 69 68 67 66 65 63 61 59 58 57 57 57 57 58 58 59 60 61 61 61 62 62 63 64 65 67 69 72 72 71 72 74 75 76 77 79 80 82 83 84
48 49 48 47 45 43 43 43 43 43 43 42 42 42 41 41 41 42 42 42 42 42 43 43 43 44 45 47 48 50 51 52 52 53 53 54 56 58 61 63 65 67 68 69 68 68 67 66 65 64 62 60 58 56 55 55 54 54 55 56 57 57 57 58 58 58 58 58 58 58 60 61 63 65 68 70 69 69 70 71 72 74 76 78 79 80 81 82
43 46 46 46 45 44 42 41 41 42 42 42 42 42 42 42 41 41 41 41 41 42 43 43 44 45 47 48 49 49 50 51 51 52 54 56 59 61 63 65 66 67 66 65 64 63 62 61 59 57 55 53 52 52 52 53 53 54 54 55 54 54 54 54 53 54 54 55 55 56 57 59 62 65 67 68 67 67 68 69 71 73 75 77 78 80 81 82
40 42 44 45 45 44 42 40 39 39 39 40 41 41 41 40 40 40 40 41 42 43 43 44 45 46 47 47 48 49 50 50 51 53 56 59 61 63 64 65 65 63 62 61 60 58 56 54 52 50 50 50 50 51 51 52 51 51 51 50 50 51 51 50 51 51 52 53 54 53 54 58 63 65 67 67 66 66 67 68 70 73 75 76 78 80 81 82
40 39 41 42 43 43 42 39 38 37 37 38 38 39 39 39 39 40 41 42 42 43 44 44 45 45 45 46 47 48 49 51 53 56 59 61 62 63 63 62 60 59 57 56 54 51 49 48 48 48 48 49 49 50 49 49 48 47 46 47 48 49 50 49 50 50 51 52 53 52 52 58 64 66 67 66 66 66 67 68 71 73 75 77 78 80 81 82
41 38 38 39 40 40 40 38 37 37 37 37 37 38 38 38 39 40 41 41 42 42 43 43 43 43 44 45 46 48 50 53 56 58 60 61 61 60 58 57 55 53 51 48 46 45 45 46 47 47 47 47 46 45 45 44 44 44 44 45 47 50 51 51 51 51 52 53 54 52 50 57 65 68 68 67 67 67 67 69 71 74 76 78 79 80 82 83
41 39 37 37 37 37 36 35 36 36 37 38 38 38 38 38 39 39 40 40 41 41 41 41 42 43 44 46 48 50 53 55 57 58 59 58 57 55 53 51 49 46 44 43 43 44 44 45 45 44 43 42 41 40 40 40 41 43 46 47 49 53 55 55 54 54 55 55 56 54 50 55 65 69 70 69 68 68 68 70 73 76 77 79 80 81 82 83
40 40 38 36 35 34 32 31 33 35 37 37 37 37 37 38 38 38 38 38 38 39 39 40 42 44 46 48 51 53 54 55 56 56 55 53 51 49 46 44 42 41 42 42 43 43 42 41 39 38 37 37 37 38 39 41 43 46 50 52 52 55 58 59 57 56 57 57 57 56 51 55 64 70 73 70 69 69 69 72 74 77 78 79 80 81 82 83
39 38 37 35 34 33 31 29 29 31 34 36 36 36 36 36 36 36 36 36 37 38 40 42 44 46 48 51 52 53 53 53 52 51 49 47 44 42 40 39 39 40 40 40 39 37 36 34 34 34 35 37 38 41 43 45 48 51 53 55 56 56 58 61 61 59 60 60 60 59 55 58 65 72 75 73 71 70 70 74 76 77 78 79 80 81 82 82
36 36 34 33 32 31 30 28 27 27 29 31 32 32 32 33 33 34 35 36 37 39 41 44 46 48 50 51 51 50 50 49 47 45 42 40 37 36 37 38 38 37 35 34 32 31 31 31 33 35 37 39 42 44 47 50 52 54 56 57 58 60 60 62 65 64 64 64 64 62 60 62 68 73 76 75 73 71 72 74 76 77 78 79 80 81 82 81
34 34 33 32 31 30 29 28 27 27 27 28 29 30 31 32 33 34 35 37 39 41 43 45 47 47 48 48 47 46 45 43 40 37 35 33 34 35 35 34 32 30 29 28 28 28 30 32 35 38 40 43 45 47 50 53 56 58 59 61 62 64 65 65 66 67 66 67 68 66 64 67 71 74 76 76 74 72 73 75 75 77 78 79 80 81 81 80
32 33 33 32 31 30 29 28 28 28 28 28 29 30 31 32 33 35 36 38 40 42 44 44 45 44 44 43 42 41 39 36 33 31 30 32 32 31 29 27 25 25 25 27 28 30 32 35 38 42 45 48 50 52 54 56 59 61 63 64 65 67 70 70 70 69 68 68 70 69 68 71 74 76 78 79 77 76 76 76 76 77 78 79 79 80 80 80
29 32 33 33 33 32 31 30 29 29 29 29 30 31 32 33 34 35 37 39 41 42 42 42 41 40 39 38 36 34 31 29 28 29 29 29 27 24 23 22 23 24 26 28 30 32 36 39 43 47 50 54 56 58 60 61 63 65 66 67 67 69 72 74 74 74 72 69 70 70 70 75 78 78 80 81 80 80 80 79 78 78 78 79 80 80 80 80
26 29 32 33 34 34 33 33 32 31 31 31 32 32 33 34 35 37 38 39 39 39 38 37 36 35 34 32 30 27 26 26 26 26 24 22 21 21 22 23 25 27 29 32 34 37 41 45 50 53 56 59 61 63 64 65 67 68 69 70 72 72 74 77 77 78 78 74 72 71 71 76 80 80 80 80 81 81 81 80 79 79 80 81 81 81 81 81
22 26 29 31 33 34 34 34 34 33 33 33 33 34 34 35 36 36 36 35 35 34 33 32 31 30 28 26 23 23 24 24 23 21 19 18 19 22 24 26 28 30 33 37 39 43 47 51 55 58 60 62 64 66 68 69 70 71 72 74 75 76 76 79 81 82 82 80 77 74 73 77 82 82 81 81 81 81 81 80 80 80 82 82 82 81 81 81
19 22 25 27 30 32 33 34 34 34 34 34 34 34 34 33 33 32 31 30 29 29 28 27 26 23 22 21 21 22 22 20 18 17 16 16 18 22 25 28 32 35 39 43 46 50 53 56 59 62 63 64 66 68 70 72 73 74 76 77 79 80 79 80 83 85 86 85 82 78 76 77 81 82 81 81 81 81 80 80 80 80 81 82 82 82 81 81
17 19 21 23 26 28 30 31 32 32 32 31 31 30 29 28 27 27 26 25 25 24 23 21 19 18 19 19 19 20 17 15 14 14 14 16 19 23 26 31 36 40 44 48 51 55 58 60 62 64 65 66 68 69 71 74 76 78 79 81 82 85 85 84 84 85 88 89 87 82 78 78 82 82 80 81 80 80 80 80 80 80 81 82 81 81 81 81
15 16 18 19 21 22 24 26 26 26 26 25 24 23 23 23 22 21 21 21 21 19 17 16 15 17 18 17 16 15 13 12 13 14 15 17 22 27 31 36 41 45 49 52 55 58 60 63 64 65 67 68 70 72 74 76 78 81 83 84 86 88 90 90 89 88 88 91 92 87 81 80 84 84 81 82 81 80 79 78 79 78 79 79 79 79 79 79
14 14 15 15 16 17 18 19 19 19 18 18 18 18 18 18 17 18 18 17 15 13 12 14 15 16 15 13 13 12 12 13 15 17 19 22 26 32 36 41 45 49 52 54 57 59 62 64 66 67 69 71 72 74 76 77 79 82 84 87 88 90 92 93 93 93 92 93 95 94 87 82 86 86 84 83 80 78 77 75 75 75 75 76 76 76 76 77
14 14 13 13 14 14 14 13 13 13 13 13 13 14 14 14 15 15 13 11 10 11 12 14 14 13 11 10 10 11 14 17 19 22 25 28 31 35 39 43 47 51 53 55 58 60 63 66 68 70 72 74 76 77 79 80 82 83 85 88 90 92 94 95 97 97 97 97 98 99 94 88 89 88 84 83 80 77 76 74 73 72 72 72 72 73 73 74
15 14 14 13 13 12 11 10 9 9 9 9 10 10 11 12 11 10 9 7 9 12 12 11 10 9 8 9 10 13 17 21 24 28 31 33 36 38 41 44 48 51 53 56 59 61 65 68 70 73 75 77 79 80 82 83 84 85 87 89 92 94 96 98 99 100 100 100 100 101 98 92 92 92 87 85 82 79 76 74 72 71 70 70 70 71 72 73
16 15 14 12 11 9 8 7 6 6 6 7 8 9 9 8 6 7 7 7 10 11 9 7 7 6 8 10 13 16 20 24 28 32 35 37 40 41 44 46 49 51 53 56 59 63 66 69 72 75 78 80 82 83 85 86 86 87 89 91 94 96 99 100 101 101 102 103 102 101 100 95 94 96 93 88 85 81 77 75 73 71 70 70 70 71 72 72
15 14 12 10 9 7 6 5 4 4 4 5 6 5 4 4 6 8 8 8 8 7 6 6 6 8 11 14 17 21 24 28 31 35 38 40 42 45 47 49 51 53 55 57 61 65 68 71 73 76 79 82 84 86 87 88 89 89 91 93 95 97 99 101 102 102 102 105 105 105 105 102 97 96 95 92 88 84 80 77 74 73 72 71 72 72 73 73
13 12 10 9 8 6 5 3 2 3 3 3 2 3 5 7 9 9 9 7 5 5 5 7 9 12 15 19 22 24 27 31 33 36 38 40 42 46 50 53 55 58 61 62 64 66 69 71 73 75 78 81 84 87 89 91 91 92 93 94 95 96 98 101 102 103 104 107 109 108 108 108 103 98 95 93 90 87 83 79 77 75 74 73 73 73 73 72
12 11 9 8 6 4 2 0 1 1 1 3 5 7 8 10 9 8 7 5 4 6 8 10 13 16 19 22 24 26 29 31 34 37 40 42 44 48 52 55 57 60 63 64 64 65 68 71 73 75 77 80 83 87 90 92 94 95 96 96 96 96 98 101 103 105 108 110 112 110 109 109 107 103 99 95 91 87 84 81 78 76 75 74 73 72 71 70
11 9 7 6 4 2 1 1 2 4 6 8 9 10 10 10 7 6 6 6 6 9 12 14 17 19 21 23 25 28 30 33 36 39 41 42 44 46 48 51 53 56 59 62 64 66 68 71 72 74 78 80 82 85 88 91 94 96 98 101 101 102 103 105 106 107 110 112 115 114 111 110 109 107 103 98 93 88 85 82 79 77 76 75 74 72 71 70
9 7 6 4 3 2 3 5 7 9 11 12 11 11 9 7 6 6 7 8 10 12 15 17 19 21 23 24 26 29 31 34 37 39 40 40 41 44 47 51 54 56 59 63 66 67 68 71 73 75 79 82 84 86 88 91 94 97 101 105 108 110 112 113 113 112 113 115 118 117 115 112 110 107 105 100 95 91 87 84 82 80 78 76 75 74 72 72
7 6 4 4 4 6 8 9 10 11 13 13 11 9 8 6 7 7 9 11 13 15 17 19 21 22 23 25 27 30 32 35 37 39 39 40 42 46 50 53 55 58 60 64 67 70 71 74 76 78 81 84 87 89 91 94 97 100 103 107 111 114 116 117 119 119 119 119 121 120 118 115 112 109 106 102 97 93 89 87 85 82 80 78 77 76 75 74
6 5 5 6 8 10 12 12 12 13 14 12 9 8 7 7 8 9 11 14 15 17 19 20 21 22 23 26 28 31 33 35 37 38 40 41 43 48 51 54 56 58 60 63 67 72 75 78 79 81 84 86 88 91 93 96 99 102 105 107 110 113 115 116 118 120 120 121 123 123 120 117 114 111 108 104 99 95 91 88 87 85 83 81 79 78 77 76
6 7 9 10 12 13 13 14 15 14 12 11 9 8 8 9 9 11 13 15 17 18 19 20 21 22 24 27 30 32 34 35 37 39 40 42 45 49 52 54 56 58 60 63 67 71 76 80 81 82 85 86 89 92 94 97 101 105 107 107 108 110 114 116 117 119 121 121 124 126 125 121 118 114 112 108 102 98 94 91 89 88 86 83 81 80 79 79
9 11 12 13 14 14 14 15 15 13 10 9 9 9 10 10 11 13 15 16 17 18 19 19 20 23 26 29 31 33 34 35 37 39 41 43 47 50 52 54 56 58 60 64 68 71 74 79 81 82 84 87 89 93 96 99 103 107 110 110 109 110 113 118 121 123 125 125 126 129 129 127 122 119 116 112 106 101 97 95 93 91 89 87 85 83 82 81
12 14 14 15 16 16 15 15 14 12 9 8 9 11 11 12 14 15 16 17 17 18 18 19 21 25 28 30 32 34 35 36 38 40 42 45 48 50 52 55 57 59 61 64 68 71 73 77 81 83 85 87 90 93 95 99 103 108 112 114 114 114 115 119 124 128 130 130 130 130 132 130 126 123 120 115 110 104 100 98 95 92 90 87 85 83 81 79
15 15 16 16 16 16 15 13 12 12 9 8 10 12 12 14 15 16 16 16 16 17 18 20 23 26 29 31 34 35 36 37 39 41 42 45 48 50 53 55 57 59 62 65 68 71 73 76 80 83 86 88 91 93 94 97 101 106 112 116 118 117 117 118 123 128 132 134 134 134 134 133 130 125 122 118 113 107 102 99 96 93 90 88 86 83 81 79
17 17 17 16 16 15 14 12 11 11 10 9 11 13 13 14 15 15 15 15 15 16 18 21 24 27 30 32 34 35 36 37 39 40 42 44 47 50 52 55 58 61 64 66 68 71 73 76 79 83 86 89 91 94 95 97 101 105 111 117 120 120 118 117 120 126 131 134 137 138 137 135 132 127 125 122 117 111 106 102 99 96 92 90 88 86 83 80
18 19 18 16 15 14 13 12 11 11 11 11 12 13 13 14 15 15 15 14 15 16 19 22 25 28 30 32 34 35 36 37 39 40 42 44 46 49 52 55 59 62 65 67 69 71 73 75 79 83 86 89 92 95 98 100 103 106 110 116 121 124 123 120 120 124 130 134 136 138 138 137 134 130 127 125 121 115 109 105 101 98 95 92 89 87 84 81
18 19 18 16 15 13 11 11 12 11 11 12 12 12 13 13 14 14 14 14 14 16 20 23 26 29 30 32 34 35 36 37 39 40 42 44 47 50 53 56 60 63 66 69 71 72 74 75 78 81 85 89 91 93 96 98 100 104 108 114 120 125 126 125 125 127 131 133 133 135 138 139 137 134 130 127 124 119 113 107 103 99 95 93 89 86 84 82
17 17 17 15 14 13 11 11 11 11 12 12 12 12 12 12 13 14 13 13 14 17 21 24 27 29 30 32 33 34 36 37 39 41 43 45 47 50 53 57 60 63 67 70 72 74 76 76 77 79 81 84 87 89 92 95 98 102 107 112 118 124 126 126 126 128 132 134 134 134 136 139 139 137 134 130 127 122 116 111 105 100 95 93 90 87 84 82
17 16 15 13 12 12 12 11 11 11 11 11 11 11 11 12 13 13 13 13 14 18 21 25 27 29 30 31 32 33 35 37 39 42 44 46 48 51 54 57 60 64 67 70 73 76 78 80 81 82 82 83 86 90 94 97 101 104 108 113 118 122 124 124 124 126 129 134 136 136 136 139 140 139 136 132 128 123 118 112 107 102 98 95 92 89 85 83
17 15 13 12 10 10 11 11 11 11 10 10 10 10 10 11 12 13 13 13 15 18 21 24 26 28 29 30 31 33 35 37 40 42 44 47 49 52 55 58 61 64 67 70 73 76 80 83 86 87 90 92 95 98 101 103 104 106 108 113 118 122 124 125 125 125 127 131 135 137 138 140 141 139 136 132 128 123 116 110 106 103 100 97 94 91 88 86
16 14 12 11 9 9 10 11 11 10 9 8 8 8 10 11 12 12 13 15 17 18 21 23 26 28 29 30 31 33 36 38 40 42 45 47 50 53 56 59 62 65 67 70 73 76 79 84 87 90 93 96 99 102 104 106 106 106 107 112 117 122 125 126 126 126 127 129 132 137 140 141 142 142 138 134 128 122 117 112 108 105 102 99 96 93 90 88
16 14 11 9 8 8 9 10 10 8 7 6 6 7 9 10 11 13 14 16 17 18 20 23 26 28 29 30 31 34 37 39 41 43 45 48 51 54 57 60 62 65 68 70 72 75 78 82 87 90 92 96 99 101 103 106 106 107 108 111 117 122 125 126 125 126 129 131 134 138 141 142 144 144 141 136 131 126 122 118 113 109 105 102 98 93 89 86
15 13 11 9 7 7 9 9 8 7 6 5 5 6 8 9 10 12 15 16 17 18 20 23 26 28 29 30 33 36 38 40 42 44 46 49 51 55 58 61 63 65 67 70 72 75 78 81 84 88 92 95 98 101 103 105 106 107 109 111 116 121 124 124 123 126 130 135 139 141 143 144 145 145 144 141 136 132 128 122 117 111 106 101 97 93 88 86
14 12 10 8 7 7 8 7 7 6 5 3 3 5 6 8 9 12 14 16 17 18 20 23 26 27 29 31 33 36 39 41 43 44 46 49 52 55 58 60 62 65 67 70 72 74 77 80 83 87 91 94 97 100 102 104 106 107 109 111 115 120 123 122 123 125 131 136 140 143 144 145 146 147 147 145 142 136 130 124 117 112 107 102 99 95 91 88
13 11 9 7 6 6 6 6 5 5 4 3 2 3 5 6 8 11 14 15 16 18 20 23 25 27 28 30 33 36 39 41 43 45 46 49 52 55 57 60 63 66 68 70 72 74 77 79 82 86 89 92 96 99 102 104 106 107 108 111 114 118 121 122 123 126 131 135 139 142 144 145 146 148 149 148 144 139 133 126 120 115 111 106 103 99 94 90
13 10 8 6 6 5 4 4 4 4 4 4 2 2 4 6 8 10 13 14 16 18 20 23 25 26 27 29 32 35 39 42 44 45 47 50 52 54 57 60 63 66 69 71 73 75 77 79 81 84 88 91 94 98 101 103 106 107 108 110 114 118 121 122 125 129 133 136 138 141 144 146 147 148 149 149 147 143 138 132 125 118 114 110 106 102 97 92
12 9 7 6 5 4 3 3 3 4 4 4 2 1 3 5 7 10 12 13 15 17 20 22 24 25 27 29 31 35 39 42 44 46 48 50 53 55 58 61 64 66 69 71 73 75 78 80 82 84 86 90 93 97 100 102 104 107 109 112 115 119 122 125 127 130 134 137 140 142 145 148 149 150 151 151 151 148 144 138 131 123 117 113 109 104 99 94
Wind_Direction
214 215 218 220 221 222 223 226 229 231 234 235 236 238 239 242 245 249 254 258 261 264 266 266 267 270 273 276 279 281 283 284 285 285 286 287 287 288 289 290 291 291 292 291 291 291 292 292 292 293 294 295 296 297 298 299 299 299 299 298 298 298 297 297 296 295 295 294 294 293 293 292 291 291 290 289 288 288 287 286 286 285 284 283 283 282 281 280
216 217 220 222 224 225 226 227 229 231 234 236 238 240 243 246 249 253 258 262 265 268 269 270 272 274 276 279 281 283 284 284 285 286 287 288 289 289 290 291 292 292 292 292 292 293 293 294 294 296 297 298 299 300 300 300 300 300 300 299 299 298 298 297 296 296 296 295 295 294 294 293 293 292 291 291 290 289 288 288 288 287 286 285 284 283 282 281
217 219 221 223 226 228 229 230 232 234 236 239 241 243 246 249 252 256 261 265 269 272 273 275 277 278 280 281 282 283 284 285 286 287 288 289 290 291 292 292 293 293 294 294 294 294 295 296 297 299 300 301 301 302 302 302 301 301 300 300 300 299 299 298 298 298 297 297 297 296 296 295 295 294 293 292 291 290 290 290 290 289 287 286 285 284 283 282
218 222 224 224 226 229 231 234 237 239 240 242 244 246 248 251 254 257 262 267 271 274 277 279 280 280 280 281 282 283 285 286 287 287 289 290 291 292 293 293 294 295 295 295 296 297 298 299 300 301 302 303 303 303 302 302 302 302 302 302 302 301 301 301 301 300 300 300 299 298 298 297 296 295 294 292 291 291 292 291 290 289 288 287 286 285 284 283
218 222 226 226 225 227 231 235 239 242 244 245 247 249 250 253 256 259 264 267 271 274 277 279 280 279 280 281 283 284 285 286 287 289 290 291 292 293 294 295 295 295 296 297 298 299 301 302 303 303 303 303 303 303 303 303 304 304 304 304 304 304 304 304 303 303 302 302 301 300 299 298 297 295 294 292 292 292 293 291 290 289 289 288 287 286 285 284
220 223 227 229 227 227 229 233 237 240 243 245 247 248 250 253 256 259 262 266 269 273 275 278 279 280 281 282 284 285 286 287 288 290 291 292 294 295 295 296 296 297 298 299 301 302 303 304 304 304 304 305 305 305 305 306 306 307 307 308 308 307 307 306 305 305 304 303 302 301 300 299 298 296 294 292 293 294 293 291 290 290 289 288 287 287 286 285
221 224 227 230 231 230 230 232 236 238 240 242 244 246 248 251 254 257 260 264 267 271 275 278 279 280 282 283 284 285 287 288 290 291 293 294 296 296 297 298 298 299 301 302 303 304 305 305 305 306 306 307 308 308 309 310 311 311 311 311 310 309 309 308 307 306 305 304 303 302 300 299 297 295 293 292 293 294 292 291 290 289 288 287 287 286 285 285
221 224 227 230 233 234 233 233 235 237 238 240 242 245 248 251 254 257 261 264 268 272 275 278 279 281 282 283 285 287 288 290 291 293 295 296 297 298 299 300 301 302 303 304 305 306 306 307 308 309 310 311 312 313 314 314 314 314 313 313 311 310 309 308 307 306 305 304 303 302 301 300 298 296 294 294 295 294 292 292 291 290 288 287 286 285 284 283
224 224 227 229 233 236 237 237 236 237 239 241 243 246 249 252 255 259 263 267 270 273 275 277 279 281 283 285 287 288 289 291 293 294 296 298 299 300 301 302 304 305 306 307 307 308 309 310 311 313 314 316 316 317 317 317 316 316 314 313 311 309 308 307 307 306 307 306 306 305 305 305 302 299 297 297 297 296 295 294 293 291 290 289 287 286 284 283
228 225 227 229 233 236 239 240 240 240 241 242 244 247 250 253 257 261 265 268 270 272 274 277 280 283 285 286 288 289 290 292 294 296 298 300 301 303 304 306 307 307 308 309 310 311 312 314 316 318 319 319 319 319 318 318 317 315 313 311 310 309 309 309 310 310 310 310 309 310 310 309 305 302 300 300 300 299 298 297 295 294 293 291 290 288 287 286
231 229 227 229 232 235 239 242 244 245 245 246 247 249 252 255 259 262 265 267 269 272 276 279 282 284 286 287 289 290 292 294 297 299 301 302 304 306 307 308 309 310 310 312 314 316 318 320 321 322 322 321 320 319 318 318 317 315 314 313 313 314 314 315 315 315 315 314 313 314 315 313 308 305 303 303 302 301 301 300 299 297 295 294 292 291 291 289
231 232 230 230 233 235 239 243 246 248 249 250 252 253 256 258 261 263 265 268 271 275 278 281 284 286 287 289 290 292 294 297 299 301 303 305 307 308 309 310 311 312 314 317 320 322 323 324 324 324 323 321 320 319 319 319 319 319 319 320 321 322 321 321 322 322 321 320 319 319 321 316 310 307 305 305 305 304 304 303 301 299 297 295 295 294 293 292
230 233 234 233 235 237 239 242 245 248 251 253 254 256 258 260 262 264 267 271 274 277 280 283 285 286 288 290 293 295 297 300 302 304 306 308 309 310 311 312 314 317 321 324 326 327 327 326 325 324 322 321 322 323 324 325 326 328 329 330 331 330 328 328 329 329 328 326 324 324 326 317 310 308 306 306 307 307 307 305 302 299 298 297 297 296 294 293
229 233 236 236 238 241 242 241 242 244 248 251 254 256 258 260 263 266 269 272 275 278 281 283 286 288 290 293 295 298 300 302 304 307 309 310 311 313 315 318 322 326 328 329 329 329 328 327 326 326 327 328 331 332 334 336 337 338 338 338 338 337 334 333 334 334 332 330 327 328 328 319 312 309 307 308 309 309 308 305 302 300 300 299 298 296 295 293
228 232 236 237 239 242 246 245 243 243 245 249 252 255 258 261 264 267 270 273 275 279 281 284 287 290 293 296 297 300 303 305 308 309 311 313 315 318 322 327 330 332 332 331 330 330 330 331 332 334 338 340 342 343 344 345 345 344 344 343 342 340 338 337 337 337 334 332 331 331 330 322 315 312 311 312 311 310 309 306 303 303 302 300 298 297 295 295
227 231 235 237 238 240 244 247 247 246 247 248 251 254 258 261 264 266 270 273 277 280 284 287 291 293 296 298 300 304 306 308 310 312 314 318 322 327 331 334 335 334 333 333 333 335 337 340 343 346 348 349 350 351 351 350 349 348 347 346 345 343 342 340 339 339 338 336 334 334 332 325 318 315 314 313 313 312 310 307 305 304 302 300 299 298 297 296
226 230 234 237 239 240 242 245 246 248 249 250 252 255 258 261 264 268 272 277 281 285 289 292 294 296 299 301 304 307 308 310 313 317 322 328 332 335 337 336 336 336 336 339 341 344 346 350 352 354 355 355 355 354 354 354 352 351 350 349 349 346 344 344 343 341 341 339 337 335 333 327 322 319 317 315 315 314 311 309 307 305 304 302 301 299 297 296
225 228 232 236 240 243 245 247 248 249 251 253 255 258 261 265 269 274 279 283 287 290 292 294 296 299 301 304 307 309 312 315 320 327 333 338 339 337 337 336 338 340 343 347 351 354 356 358 358 359 359 358 358 357 356 356 355 354 353 352 352 350 347 346 345 343 343 343 339 338 336 331 326 323 321 320 320 317 314 312 310 308 306 303 301 299 297 296
224 228 231 235 239 243 246 250 252 254 256 258 260 263 267 271 275 280 284 287 290 292 294 296 299 302 304 307 310 314 318 325 333 339 341 340 337 336 337 341 346 350 353 356 359 1 2 2 2 2 3 2 0 359 358 358 357 356 355 354 353 354 351 349 348 345 345 346 342 340 339 334 329 326 325 325 323 320 317 316 314 311 307 303 301 300 298 295
224 227 230 233 236 240 244 248 253 256 259 262 264 268 272 276 280 284 287 289 291 293 296 299 302 305 309 312 316 322 331 339 343 344 341 338 339 345 350 354 357 359 1 3 5 6 6 6 6 6 5 4 3 1 0 359 359 358 357 356 355 356 355 351 350 348 346 348 345 343 343 336 330 329 329 327 324 322 320 317 315 311 307 305 303 301 299 297
221 225 228 232 235 238 242 247 252 256 260 263 266 270 275 279 283 285 287 289 292 295 299 302 307 310 314 319 326 335 343 345 345 343 341 343 352 358 1 3 5 6 7 8 8 9 10 9 9 8 7 6 4 3 1 0 0 359 358 357 356 357 357 354 352 350 347 348 346 345 346 339 332 332 332 329 326 323 321 318 315 312 309 307 305 303 301 299
216 221 225 230 234 238 242 246 251 255 259 263 268 273 277 280 283 284 287 290 294 299 304 308 312 317 324 333 341 345 346 345 343 343 346 352 358 2 4 8 10 11 12 12 12 12 12 11 11 10 8 7 6 4 3 2 1 360 359 358 357 356 358 356 354 351 348 347 346 347 348 341 334 334 333 329 327 324 322 319 316 313 310 308 306 305 303 301
210 215 220 225 231 236 241 245 250 255 259 264 269 273 276 278 281 284 289 294 300 305 309 314 321 331 341 347 348 346 344 341 342 346 351 355 359 2 6 10 12 13 14 15 15 14 13 12 11 10 9 7 6 5 5 3 1 0 359 358 358 356 356 357 355 353 350 347 346 347 349 344 336 335 334 330 329 326 323 321 317 315 312 310 308 307 305 303
203 207 213 219 226 232 238 243 248 253 258 263 267 270 273 277 282 289 296 301 306 309 315 327 340 349 353 351 345 342 343 344 348 354 357 359 5 9 11 13 15 17 17 17 17 15 13 12 11 10 9 8 7 6 5 4 2 1 360 359 359 357 356 356 355 354 352 348 346 346 350 348 340 337 336 333 331 328 325 322 318 316 313 311 309 307 306 304
190 196 202 209 216 224 231 238 243 249 254 259 263 269 274 281 290 297 302 307 312 320 336 351 356 358 356 348 343 348 352 354 358 3 5 8 12 15 16 17 19 20 20 19 17 15 13 13 12 11 10 8 7 6 5 5 4 2 1 359 359 358 357 356 354 354 353 350 347 345 349 350 343 339 338 335 332 329 325 322 319 316 314 312 310 309 307 305
176 180 187 194 203 212 219 226 234 242 249 256 264 272 281 291 298 303 310 318 330 349 1 4 1 358 353 350 354 0 4 7 10 12 13 14 15 16 18 19 21 23 21 18 17 16 15 14 14 12 10 9 8 6 5 5 4 3 1 360 359 358 357 356 355 354 353 351 348 347 349 351 345 341 340 337 334 331 328 325 322 319 317 314 312 310 308 305
166 170 178 184 192 201 209 218 228 238 248 259 271 283 294 301 307 319 334 347 2 10 10 3 358 356 356 3 8 9 14 17 18 18 17 17 17 17 19 20 21 23 22 19 18 17 16 14 14 13 11 9 8 7 6 5 4 3 2 360 359 358 357 357 356 355 353 351 350 349 349 351 347 343 343 340 336 334 331 328 325 322 319 317 314 311 309 307
163 168 174 180 187 193 200 211 222 237 254 272 288 298 305 314 338 3 12 19 21 17 8 2 3 9 15 18 18 18 20 20 20 20 20 21 21 20 20 19 19 20 23 22 19 17 16 14 13 13 11 10 8 7 6 5 4 3 2 1 359 359 357 357 357 356 354 351 350 350 350 351 350 346 345 343 339 337 334 331 328 325 323 320 317 315 312 311
164 168 171 175 179 181 187 200 217 250 280 296 306 318 339 20 42 40 37 37 31 17 11 22 26 25 27 27 27 26 25 24 24 25 25 25 25 24 22 20 17 16 18 21 19 16 15 14 12 12 11 10 8 7 6 5 4 3 3 2 0 360 358 358 358 357 355 352 351 352 352 352 352 349 347 344 342 339 337 334 332 329 327 324 321 319 316 315
162 162 162 162 163 167 176 193 243 290 306 320 356 47 62 63 60 51 49 51 42 33 37 41 38 35 36 35 33 32 30 29 29 29 29 29 28 26 23 20 17 14 13 15 17 15 14 13 11 10 10 10 8 7 6 5 4 3 2 1 1 1 360 359 359 359 357 354 352 353 354 353 352 351 349 346 344 342 340 337 335 333 330 327 325 322 319 317
152 150 150 152 156 160 161 175 313 338 53 81 83 80 72 68 63 57 62 70 60 52 51 48 45 41 39 36 33 31 30 29 28 28 27 28 27 26 24 21 18 15 12 11 13 14 13 12 11 9 9 10 9 7 6 5 4 3 1 0 1 1 1 360 0 1 359 356 353 354 355 354 353 352 351 349 347 344 342 340 337 335 332 329 327 324 321 318
143 143 144 146 144 133 110 106 110 107 103 95 87 80 74 73 73 75 81 80 67 60 54 50 46 41 38 35 33 31 29 28 28 28 28 28 28 26 24 22 19 16 13 10 10 12 12 11 11 9 8 9 9 8 6 5 3 3 2 0 360 0 0 360 0 1 1 358 354 355 356 356 355 353 352 351 348 346 344 341 339 337 335 332 329 327 324 321
138 138 136 131 121 114 117 116 115 111 102 92 86 85 85 89 91 91 87 78 69 62 55 50 45 42 39 37 34 31 30 29 28 28 29 28 27 25 22 20 17 16 14 11 9 11 12 11 10 9 8 8 9 8 7 5 4 3 2 1 1 0 0 360 359 0 2 360 356 355 356 356 356 354 353 352 350 348 346 343 341 339 337 335 332 330 328 326
135 131 128 122 122 122 118 115 113 107 97 93 94 99 102 105 102 94 84 74 67 60 53 48 44 42 40 36 33 31 30 29 28 27 26 26 25 23 20 18 17 15 15 13 9 8 11 12 10 9 9 8 8 8 7 6 4 3 2 2 1 1 0 0 360 359 1 1 357 356 357 357 357 355 354 353 351 349 347 345 343 341 340 338 336 333 331 329
130 125 122 124 123 120 117 114 108 102 99 103 110 113 115 112 103 92 79 70 63 57 52 48 44 42 38 35 32 30 29 28 26 25 24 24 23 21 19 17 17 16 15 14 11 8 8 11 10 9 9 8 7 8 7 6 5 3 2 1 1 1 360 0 360 359 360 1 359 357 357 358 357 357 356 354 353 351 349 347 345 344 342 341 339 336 333 331
125 123 123 122 119 117 115 110 104 102 108 117 122 119 115 109 97 86 75 66 60 55 51 48 45 42 37 34 32 30 28 26 25 23 23 23 21 19 18 17 17 16 15 14 14 10 7 9 11 9 9 8 6 7 7 6 5 4 3 2 1 1 359 359 360 359 359 1 0 358 358 359 358 358 357 356 354 353 351 349 348 347 345 343 341 338 336 333
127 125 124 121 118 115 113 109 108 113 120 125 124 118 110 103 91 80 71 63 58 54 51 47 43 39 36 33 31 29 27 25 23 22 22 21 19 18 17 16 15 15 14 13 14 12 9 8 10 10 9 8 7 6 7 6 6 5 4 3 2 2 1 359 359 359 358 0 2 360 359 359 359 359 358 357 355 354 353 352 350 349 347 345 343 340 338 335
126 125 124 121 118 115 113 113 117 124 129 129 123 115 107 97 85 76 68 62 57 53 49 44 39 37 34 32 30 27 26 24 22 21 21 19 18 17 16 15 14 13 13 12 12 12 10 8 9 10 10 9 8 7 7 6 6 5 5 4 3 3 2 1 360 359 358 359 1 1 360 360 0 360 359 358 357 355 355 353 352 350 348 346 343 341 339 336
126 125 123 121 120 118 119 122 126 129 133 132 120 112 102 91 81 73 66 60 55 50 46 41 38 36 33 31 29 26 24 23 21 20 19 18 17 16 15 13 12 11 11 11 11 12 11 9 9 10 10 9 8 7 7 7 6 5 5 5 5 4 3 3 1 0 359 359 360 1 1 1 1 0 360 359 358 357 356 355 353 351 349 347 344 342 340 338
127 124 122 122 122 123 126 130 132 131 132 129 118 108 98 88 79 70 64 57 51 46 42 39 37 35 32 29 27 25 23 22 20 19 18 18 17 15 13 12 10 10 9 10 11 12 11 10 9 9 10 10 9 8 7 7 6 5 5 5 5 5 4 4 3 2 0 359 360 1 1 1 1 1 1 360 359 358 357 356 354 352 350 348 346 344 342 339
130 127 126 127 127 129 133 135 134 132 130 123 114 105 94 85 76 67 60 54 48 44 40 39 36 32 30 27 25 23 22 20 19 18 18 17 16 14 13 11 10 9 9 9 9 11 12 11 10 10 10 10 9 8 7 7 6 5 4 4 5 5 4 4 4 3 2 1 1 1 1 1 2 2 2 1 0 359 358 357 356 353 351 349 347 345 343 341
132 130 133 135 135 138 141 138 135 132 127 120 111 101 91 83 73 63 56 50 44 41 38 37 33 29 27 25 23 21 20 18 17 17 17 16 15 13 12 11 10 9 9 8 8 9 11 12 11 11 10 10 9 8 7 6 6 4 3 4 4 5 5 4 4 4 3 1 0 1 1 1 2 3 2 2 1 0 359 358 357 355 353 350 349 347 345 344
132 133 137 141 143 145 143 139 134 131 125 118 109 99 90 80 68 59 51 44 40 37 36 34 30 27 25 23 21 19 18 17 16 16 15 14 13 12 11 11 10 9 8 7 7 6 8 11 12 12 12 11 9 8 8 6 5 4 3 4 5 5 5 5 4 4 4 2 360 0 1 2 3 3 3 3 2 1 360 359 357 356 354 352 350 349 348 346
135 137 142 148 151 148 141 137 133 129 125 117 108 99 89 76 63 54 46 38 35 34 34 32 28 25 22 20 19 17 16 16 15 14 13 13 12 11 11 10 9 9 8 7 6 5 6 8 10 10 12 12 10 9 9 9 7 5 4 3 4 5 5 5 5 4 4 3 0 0 2 3 3 4 4 4 3 2 1 359 358 357 355 354 352 351 350 348
139 143 150 156 157 149 139 134 133 131 125 117 107 98 86 72 57 47 40 35 32 32 32 29 24 21 20 19 17 16 15 14 14 13 12 12 11 10 10 9 9 8 8 7 7 6 5 6 7 8 9 10 10 9 10 10 9 7 5 3 4 5 5 5 5 4 4 4 2 1 2 3 4 4 4 4 4 3 2 0 359 358 357 356 354 353 352 351
144 149 158 162 159 150 136 132 135 135 128 119 108 96 83 68 54 43 37 34 32 31 29 25 21 19 18 17 16 14 14 13 12 12 12 11 11 10 9 9 8 8 8 8 8 7 6 6 6 7 8 8 9 9 9 9 9 8 6 4 4 5 5 5 5 4 4 4 4 3 2 3 4 4 5 5 4 4 3 2 1 0 359 357 356 356 355 353
150 156 165 168 162 147 132 132 139 141 136 124 109 94 79 64 50 40 35 32 31 30 26 21 18 17 16 15 14 13 12 11 10 10 10 11 10 10 9 8 8 8 9 9 9 9 8 7 6 7 8 8 8 9 8 9 8 8 7 5 4 6 6 6 5 4 4 5 5 5 4 4 4 4 5 5 4 5 5 4 3 2 0 359 358 357 356 355
157 164 170 170 160 141 130 135 146 151 148 133 107 91 76 59 46 37 31 29 29 28 23 18 16 16 15 14 13 11 10 10 9 9 9 9 9 9 8 8 8 8 9 9 10 10 10 9 8 8 8 8 8 8 8 8 8 8 7 6 5 5 6 6 5 5 6 6 7 6 5 5 5 4 5 5 5 6 6 5 4 3 2 0 360 359 358 357
164 168 170 166 153 136 133 143 155 162 163 147 109 90 72 53 39 32 27 25 26 24 19 16 15 15 15 13 12 11 10 9 9 9 8 8 8 7 7 7 7 8 9 9 10 11 11 10 10 9 8 8 8 8 8 8 8 8 7 6 5 5 6 6 6 7 7 7 8 7 6 5 5 5 5 6 6 6 6 6 5 4 3 2 1 1 0 360
169 169 167 159 146 139 140 151 164 171 175 168 127 92 67 44 31 25 23 23 23 20 16 15 14 14 14 13 11 10 10 10 9 8 8 8 7 6 6 6 7 7 8 9 9 10 10 11 10 9 8 8 8 8 7 7 8 8 7 6 5 5 6 7 8 8 8 8 8 8 6 5 5 6 6 6 6 6 6 6 6 5 4 3 3 3 2 2
171 169 164 154 147 150 154 161 176 186 187 183 157 97 54 33 23 18 19 21 21 17 14 13 12 12 12 11 11 10 10 10 9 8 8 7 7 6 6 6 6 7 7 8 8 9 10 10 10 9 9 8 7 7 7 7 7 7 7 7 6 5 6 8 9 8 8 8 8 8 7 6 5 6 6 6 6 6 7 7 6 6 6 4 4 4 4 3
172 169 165 159 156 163 177 188 200 201 192 182 167 105 45 24 17 14 16 19 18 14 12 11 10 10 10 10 10 9 10 10 9 8 8 7 6 5 5 5 5 6 6 7 7 8 8 9 9 9 9 8 7 7 7 7 6 7 7 7 7 7 7 9 10 9 8 8 8 9 8 7 6 6 7 7 7 7 7 7 6 6 6 6 5 5 5 4
Height
10692 10695 10696 10698 10701 10704 10707 10709 10712 10714 10715 10718 10721 10723 10726 10729 10731 10734 10735 10736 10737 10737 10737 10736 10737 10737 10736 10735 10735 10734 10732 10731 10729 10727 10725 10723 10721 10719 10716 10714 10712 10709 10707 10704 10701 10698 10695 10693 10690 10687 10683 10680 10677 10673 10669 10664 10660 10655 10651 10646 10642 10638 10634 10629 10624 10620 10615 10611 10605 10601 10596 10591 10586 10581 10577 10572 10567 10562 10558 10555 10554 10551 10548 10545 10542 10539 10535 10532
10691 10693 10695 10697 10699 10702 10705 10708 10710 10712 10714 10717 10720 10723 10726 10729 10731 10733 10734 10734 10735 10735 10734 10734 10734 10734 10733 10733 10732 10730 10729 10727 10725 10723 10721 10718 10716 10714 10713 10710 10707 10705 10702 10699 10696 10693 10690 10687 10684 10681 10677 10674 10670 10666 10661 10657 10652 10647 10643 10638 10634 10630 10625 10621 10616 10611 10607 10602 10597 10592 10587 10582 10577 10572 10566 10562 10556 10551 10546 10544 10543 10540 10536 10532 10529 10527 10524 10520
10689 10691 10693 10695 10698 10701 10704 10706 10708 10711 10714 10717 10720 10723 10726 10728 10730 10731 10731 10732 10732 10732 10732 10732 10731 10731 10730 10730 10728 10727 10725 10723 10721 10719 10717 10715 10713 10711 10709 10706 10703 10700 10697 10695 10692 10689 10685 10682 10678 10675 10671 10667 10662 10657 10652 10648 10643 10639 10635 10630 10625 10621 10617 10611 10607 10603 10598 10594 10589 10584 10579 10573 10568 10562 10556 10551 10546 10540 10537 10535 10532 10527 10523 10519 10517 10514 10511 10508
10687 10688 10690 10694 10697 10700 10703 10705 10708 10710 10714 10717 10720 10723 10726 10727 10728 10729 10729 10729 10730 10730 10730 10729 10729 10728 10727 10726 10724 10723 10721 10719 10717 10715 10713 10711 10709 10707 10704 10702 10699 10696 10693 10690 10687 10684 10680 10676 10673 10668 10664 10659 10655 10650 10645 10640 10636 10631 10627 10622 10617 10613 10608 10603 10599 10595 10591 10586 10581 10576 10571 10566 10560 10554 10548 10542 10537 10533 10530 10527 10521 10516 10512 10508 10505 10501 10499 10496
10685 10686 10688 10693 10697 10700 10702 10705 10708 10710 10714 10717 10720 10722 10724 10725 10726 10726 10727 10727 10728 10728 10728 10727 10726 10725 10724 10722 10721 10719 10718 10716 10713 10712 10710 10708 10705 10703 10701 10698 10696 10693 10690 10686 10682 10679 10675 10670 10666 10662 10658 10653 10649 10644 10639 10634 10630 10625 10620 10616 10611 10606 10601 10596 10592 10588 10584 10579 10574 10570 10564 10559 10553 10546 10539 10533 10529 10527 10524 10518 10511 10506 10502 10498 10493 10489 10486 10483
10683 10685 10687 10691 10695 10699 10702 10704 10707 10710 10713 10716 10718 10720 10722 10723 10723 10724 10725 10725 10726 10725 10725 10724 10723 10722 10720 10719 10717 10716 10714 10713 10710 10708 10706 10704 10702 10700 10697 10695 10692 10689 10685 10681 10677 10673 10669 10664 10660 10656 10651 10647 10643 10638 10634 10628 10624 10619 10614 10609 10604 10600 10595 10590 10586 10581 10577 10572 10567 10562 10556 10551 10545 10537 10530 10524 10521 10520 10515 10507 10502 10497 10492 10487 10482 10478 10474 10471
10681 10684 10687 10690 10693 10697 10701 10703 10706 10708 10711 10714 10716 10718 10719 10720 10721 10722 10723 10723 10723 10723 10722 10721 10720 10718 10717 10715 10714 10713 10711 10709 10707 10705 10703 10701 10699 10696 10694 10691 10687 10684 10680 10676 10672 10667 10663 10659 10654 10650 10646 10641 10636 10631 10627 10622 10618 10613 10608 10604 10599 10594 10589 10584 10579 10574 10569 10565 10560 10555 10549 10543 10536 10528 10520 10515 10514 10511 10504 10498 10493 10488 10482 10477 10473 10468 10463 10459
10680 10683 10687 10689 10692 10695 10699 10702 10705 10707 10710 10712 10714 10716 10717 10718 10719 10720 10721 10721 10721 10720 10719 10718 10716 10715 10714 10713 10711 10710 10708 10706 10705 10702 10700 10698 10695 10693 10690 10686 10683 10679 10675 10671 10666 10662 10657 10653 10649 10645 10640 10635 10630 10625 10621 10617 10613 10608 10603 10598 10593 10588 10583 10579 10574 10568 10563 10558 10554 10548 10542 10535 10526 10518 10511 10507 10506 10501 10494 10489 10483 10477 10472 10467 10463 10458 10453 10449
10679 10683 10686 10689 10691 10694 10697 10700 10703 10706 10709 10711 10713 10714 10716 10717 10718 10718 10718 10718 10718 10717 10716 10715 10713 10712 10711 10710 10709 10707 10705 10703 10702 10700 10697 10694 10691 10688 10685 10682 10678 10674 10670 10666 10661 10657 10653 10648 10644 10640 10635 10630 10626 10622 10617 10613 10609 10604 10599 10593 10589 10584 10579 10575 10569 10563 10557 10551 10547 10542 10536 10527 10516 10508 10503 10499 10497 10491 10485 10480 10473 10467 10461 10456 10451 10446 10441 10437
10678 10682 10685 10688 10690 10693 10695 10698 10702 10705 10708 10710 10711 10713 10714 10715 10716 10716 10716 10715 10714 10714 10713 10712 10711 10710 10709 10707 10706 10704 10702 10701 10699 10696 10693 10690 10687 10684 10681 10677 10673 10669 10665 10661 10657 10653 10649 10644 10640 10635 10631 10627 10622 10618 10614 10609 10605 10600 10595 10589 10584 10579 10574 10570 10565 10559 10553 10546 10541 10537 10531 10519 10506 10499 10494 10490 10487 10480 10475 10470 10463 10456 10449 10443 10437 10432 10427 10422
10676 10680 10684 10687 10690 10692 10694 10697 10700 10703 10706 10708 10710 10711 10713 10713 10714 10714 10713 10712 10712 10711 10710 10709 10708 10707 10706 10705 10703 10701 10700 10698 10695 10692 10689 10686 10683 10680 10676 10672 10668 10664 10661 10657 10653 10648 10644 10640 10636 10632 10628 10624 10619 10615 10611 10606 10602 10597 10592 10586 10580 10574 10569 10566 10560 10555 10549 10542 10536 10533 10527 10512 10496 10490 10485 10481 10477 10471 10466 10460 10452 10445 10437 10430 10424 10419 10414 10408
10676 10680 10683 10686 10689 10691 10694 10697 10700 10702 10704 10706 10708 10709 10710 10711 10711 10711 10710 10710 10709 10709 10708 10707 10706 10705 10703 10702 10701 10699 10697 10694 10692 10689 10686 10682 10679 10676 10672 10668 10664 10660 10657 10654 10649 10645 10641 10637 10633 10629 10625 10621 10617 10613 10608 10604 10599 10594 10588 10582 10577 10569 10563 10560 10555 10549 10542 10536 10530 10527 10524 10507 10488 10480 10475 10471 10467 10463 10458 10451 10442 10433 10425 10419 10413 10407 10401 10395
10676 10679 10682 10685 10688 10691 10694 10697 10699 10701 10703 10705 10706 10707 10708 10708 10708 10708 10708 10707 10707 10706 10705 10704 10703 10702 10701 10700 10698 10696 10693 10691 10688 10685 10682 10679 10676 10672 10668 10664 10661 10657 10653 10650 10646 10642 10638 10635 10631 10627 10624 10619 10615 10611 10607 10602 10596 10590 10583 10578 10573 10564 10556 10552 10549 10543 10536 10530 10523 10521 10519 10503 10483 10472 10466 10463 10460 10455 10450 10441 10432 10423 10415 10409 10403 10397 10390 10383
10677 10679 10681 10684 10688 10690 10693 10697 10699 10701 10702 10703 10704 10705 10705 10706 10706 10706 10705 10705 10704 10704 10703 10702 10701 10700 10698 10697 10694 10692 10690 10688 10685 10682 10679 10676 10672 10668 10665 10661 10658 10654 10650 10646 10643 10640 10637 10633 10630 10625 10621 10617 10613 10608 10603 10598 10592 10586 10579 10573 10568 10560 10550 10544 10542 10538 10530 10524 10518 10514 10512 10499 10479 10464 10456 10455 10452 10448 10442 10431 10422 10413 10406 10400 10392 10385 10379 10373
10676 10678 10681 10684 10687 10689 10692 10695 10698 10699 10700 10701 10702 10703 10703 10703 10704 10703 10703 10703 10702 10702 10701 10700 10699 10697 10696 10693 10691 10690 10687 10685 10683 10680 10676 10673 10669 10665 10662 10658 10655 10652 10648 10645 10641 10638 10635 10631 10627 10623 10619 10614 10609 10604 10599 10594 10587 10581 10575 10568 10562 10556 10548 10539 10534 10531 10523 10516 10510 10505 10502 10491 10474 10457 10447 10445 10443 10438 10432 10421 10412 10404 10397 10389 10381 10374 10366 10361
10675 10678 10681 10684 10686 10689 10691 10694 10696 10697 10698 10699 10700 10700 10701 10701 10701 10701 10701 10701 10700 10700 10699 10697 10696 10694 10692 10690 10689 10687 10685 10683 10680 10677 10674 10670 10666 10663 10659 10656 10653 10650 10647 10644 10641 10637 10633 10629 10625 10620 10616 10611 10607 10601 10596 10590 10583 10577 10571 10564 10557 10550 10545 10536 10527 10522 10515 10507 10501 10496 10491 10481 10466 10451 10440 10436 10434 10429 10421 10410 10401 10394 10385 10376 10369 10361 10354 10350
10675 10678 10680 10683 10685 10687 10690 10692 10693 10695 10696 10697 10698 10698 10698 10699 10699 10699 10699 10699 10699 10698 10696 10694 10693 10691 10689 10688 10686 10685 10683 10680 10678 10675 10671 10668 10664 10660 10658 10655 10652 10649 10646 10643 10639 10636 10632 10627 10622 10618 10613 10608 10603 10598 10593 10587 10580 10573 10566 10559 10552 10542 10537 10532 10523 10515 10509 10501 10493 10487 10481 10469 10456 10444 10433 10426 10425 10420 10409 10400 10392 10382 10373 10365 10357 10348 10342 10338
10674 10677 10679 10682 10684 10686 10688 10690 10691 10693 10694 10695 10696 10696 10696 10697 10697 10698 10698 10697 10696 10695 10693 10692 10690 10689 10688 10686 10685 10683 10680 10678 10675 10672 10669 10666 10662 10659 10657 10655 10652 10648 10645 10641 10637 10633 10629 10624 10619 10614 10609 10604 10598 10594 10589 10583 10576 10569 10562 10555 10549 10539 10528 10523 10517 10510 10506 10498 10486 10479 10472 10458 10445 10434 10422 10414 10410 10404 10395 10387 10380 10371 10361 10352 10344 10337 10330 10325
10673 10676 10678 10681 10683 10685 10686 10688 10689 10691 10692 10693 10694 10694 10695 10695 10696 10696 10696 10695 10693 10692 10690 10689 10688 10687 10686 10684 10682 10680 10678 10676 10673 10670 10667 10664 10662 10659 10656 10653 10650 10646 10642 10639 10635 10630 10625 10620 10616 10611 10605 10600 10594 10589 10583 10577 10571 10564 10557 10550 10545 10538 10525 10516 10509 10501 10498 10495 10483 10474 10465 10448 10434 10424 10414 10405 10396 10387 10379 10372 10365 10356 10347 10338 10331 10324 10318 10311
10672 10675 10677 10680 10682 10683 10685 10686 10688 10689 10690 10691 10691 10692 10693 10694 10695 10694 10694 10692 10691 10689 10689 10688 10687 10686 10684 10682 10680 10678 10676 10673 10671 10669 10666 10663 10660 10657 10654 10651 10647 10644 10640 10636 10631 10627 10622 10617 10612 10607 10602 10596 10590 10584 10578 10572 10566 10559 10553 10545 10538 10533 10523 10511 10504 10494 10487 10486 10479 10471 10462 10442 10424 10416 10408 10397 10387 10376 10366 10358 10350 10341 10331 10323 10316 10309 10302 10296
10671 10673 10676 10678 10680 10682 10684 10685 10686 10687 10688 10689 10690 10691 10692 10693 10693 10692 10691 10690 10689 10688 10688 10687 10685 10684 10682 10680 10678 10676 10674 10672 10670 10668 10665 10662 10659 10655 10652 10649 10645 10641 10637 10632 10628 10623 10619 10614 10609 10603 10598 10593 10587 10580 10574 10567 10562 10555 10548 10541 10533 10528 10521 10508 10497 10487 10477 10474 10470 10463 10456 10437 10416 10407 10400 10388 10377 10366 10356 10346 10337 10327 10316 10308 10301 10294 10287 10280
10670 10672 10674 10676 10679 10680 10682 10684 10685 10686 10687 10688 10689 10691 10691 10691 10690 10690 10689 10689 10688 10687 10686 10685 10684 10682 10680 10678 10676 10675 10673 10671 10669 10667 10664 10661 10658 10654 10651 10647 10643 10639 10634 10629 10625 10620 10616 10611 10606 10601 10595 10590 10584 10578 10571 10564 10558 10552 10544 10537 10529 10522 10518 10509 10495 10483 10470 10464 10461 10457 10450 10434 10413 10401 10392 10381 10370 10358 10347 10336 10325 10314 10304 10294 10286 10279 10272 10265
10669 10671 10673 10675 10677 10679 10681 10682 10684 10685 10686 10688 10689 10689 10689 10689 10689 10688 10688 10688 10687 10686 10685 10684 10682 10680 10679 10677 10675 10673 10672 10670 10668 10666 10663 10660 10657 10653 10649 10645 10641 10636 10632 10627 10622 10617 10613 10608 10603 10599 10594 10588 10582 10576 10569 10561 10553 10546 10539 10532 10524 10514 10508 10503 10495 10483 10468 10455 10450 10449 10445 10429 10408 10397 10386 10373 10362 10350 10337 10326 10314 10303 10292 10282 10273 10265 10258 10250
10668 10670 10672 10674 10676 10678 10680 10681 10683 10684 10686 10687 10688 10688 10688 10687 10687 10687 10687 10687 10686 10685 10684 10682 10681 10679 10677 10676 10674 10673 10671 10669 10667 10664 10662 10659 10655 10651 10647 10643 10638 10634 10629 10625 10620 10616 10611 10607 10602 10596 10591 10585 10579 10573 10567 10560 10551 10541 10533 10525 10518 10509 10498 10490 10484 10479 10468 10451 10438 10436 10438 10424 10400 10387 10379 10364 10352 10341 10329 10317 10304 10294 10283 10272 10263 10254 10246 10238
10668 10670 10672 10674 10676 10677 10679 10681 10682 10684 10685 10686 10686 10686 10686 10686 10686 10686 10686 10685 10685 10684 10683 10681 10680 10678 10677 10675 10674 10672 10670 10667 10665 10662 10660 10657 10653 10649 10645 10641 10636 10632 10628 10623 10619 10614 10609 10604 10599 10593 10588 10582 10576 10570 10564 10558 10550 10540 10530 10521 10512 10504 10495 10485 10474 10467 10461 10447 10430 10421 10423 10416 10393 10377 10368 10356 10345 10334 10321 10311 10298 10286 10275 10264 10254 10245 10236 10227
10668 10670 10672 10673 10675 10677 10679 10680 10682 10684 10684 10685 10685 10685 10686 10686 10685 10685 10685 10684 10683 10683 10681 10680 10679 10678 10676 10675 10673 10671 10668 10665 10663 10660 10658 10655 10651 10647 10643 10639 10635 10631 10626 10622 10617 10612 10607 10602 10596 10590 10585 10579 10572 10567 10560 10554 10548 10539 10530 10520 10510 10500 10491 10481 10467 10455 10447 10437 10422 10408 10404 10400 10384 10371 10361 10346 10335 10324 10311 10300 10288 10277 10266 10255 10245 10235 10226 10217
10669 10670 10672 10673 10675 10677 10679 10681 10682 10683 10684 10684 10684 10685 10685 10685 10684 10684 10683 10683 10682 10681 10680 10680 10679 10678 10676 10674 10672 10669 10667 10664 10661 10659 10655 10652 10648 10645 10641 10637 10634 10630 10626 10621 10615 10610 10605 10598 10593 10587 10581 10575 10569 10563 10556 10550 10544 10536 10528 10518 10508 10497 10486 10475 10463 10448 10437 10429 10418 10403 10395 10390 10373 10356 10349 10335 10321 10311 10299 10288 10277 10266 10256 10246 10236 10225 10215 10206
10669 10671 10672 10674 10676 10678 10680 10681 10682 10683 10683 10684 10684 10684 10684 10684 10683 10683 10683 10682 10682 10681 10680 10680 10678 10677 10675 10673 10671 10668 10666 10663 10660 10657 10653 10650 10646 10642 10638 10635 10631 10628 10625 10620 10614 10608 10602 10596 10590 10584 10577 10571 10565 10559 10552 10547 10541 10533 10526 10515 10503 10493 10481 10471 10460 10445 10432 10422 10413 10400 10388 10382 10367 10344 10331 10321 10309 10298 10287 10276 10265 10255 10245 10234 10223 10213 10203 10193
10670 10672 10673 10675 10677 10678 10680 10680 10681 10682 10683 10683 10683 10683 10683 10683 10683 10683 10682 10682 10682 10681 10680 10679 10678 10676 10674 10672 10670 10667 10665 10662 10659 10655 10652 10648 10644 10640 10636 10632 10627 10623 10620 10616 10610 10604 10598 10593 10587 10581 10575 10568 10561 10555 10548 10541 10536 10529 10522 10513 10501 10491 10480 10469 10458 10445 10430 10414 10402 10390 10375 10365 10358 10342 10322 10308 10296 10284 10274 10263 10252 10241 10231 10220 10210 10199 10189 10180
10671 10673 10675 10676 10677 10678 10679 10680 10681 10681 10682 10682 10683 10683 10683 10683 10682 10682 10682 10682 10682 10681 10680 10679 10677 10675 10673 10671 10669 10667 10664 10661 10659 10655 10652 10648 10644 10639 10634 10627 10621 10615 10610 10607 10604 10600 10595 10590 10585 10579 10574 10567 10559 10551 10544 10536 10529 10522 10517 10512 10505 10494 10481 10470 10458 10443 10425 10407 10392 10380 10365 10349 10341 10333 10319 10302 10286 10272 10260 10249 10239 10229 10218 10208 10199 10188 10178 10169
10672 10674 10675 10676 10677 10678 10679 10680 10680 10681 10682 10682 10682 10683 10682 10682 10682 10683 10683 10682 10682 10681 10679 10678 10676 10675 10673 10670 10668 10666 10663 10661 10658 10654 10650 10645 10640 10635 10630 10625 10620 10615 10610 10606 10605 10602 10596 10590 10584 10578 10572 10567 10559 10549 10540 10531 10524 10517 10510 10505 10501 10494 10483 10470 10457 10441 10420 10399 10384 10374 10363 10346 10329 10318 10307 10294 10279 10264 10251 10240 10229 10219 10209 10199 10189 10180 10169 10159
10673 10674 10675 10676 10677 10678 10679 10679 10680 10681 10681 10682 10682 10682 10682 10682 10683 10683 10683 10682 10681 10680 10679 10678 10676 10674 10672 10669 10667 10665 10662 10659 10656 10652 10648 10644 10640 10637 10634 10631 10628 10623 10618 10612 10607 10602 10596 10590 10584 10577 10569 10563 10556 10548 10540 10530 10522 10514 10505 10494 10485 10478 10469 10456 10446 10437 10420 10396 10376 10364 10354 10341 10323 10307 10294 10282 10269 10257 10243 10231 10221 10210 10200 10189 10178 10168 10158 10147
10674 10675 10675 10676 10677 10678 10679 10680 10680 10681 10681 10682 10682 10682 10683 10683 10683 10683 10683 10682 10681 10680 10679 10677 10676 10673 10671 10669 10667 10664 10662 10658 10655 10652 10648 10646 10643 10640 10636 10632 10627 10623 10617 10610 10604 10600 10596 10590 10582 10574 10565 10557 10550 10543 10536 10527 10517 10506 10495 10482 10467 10454 10444 10435 10426 10421 10413 10394 10371 10356 10345 10333 10319 10302 10287 10274 10260 10247 10234 10221 10210 10199 10189 10178 10166 10155 10145 10134
10674 10675 10675 10676 10677 10678 10679 10680 10681 10681 10682 10682 10683 10683 10684 10684 10684 10683 10683 10682 10681 10680 10679 10677 10675 10673 10671 10669 10666 10664 10661 10658 10655 10651 10649 10646 10642 10638 10634 10630 10626 10621 10615 10608 10601 10595 10591 10586 10577 10569 10560 10550 10541 10534 10526 10518 10509 10498 10486 10473 10459 10444 10433 10423 10410 10401 10397 10384 10364 10349 10337 10323 10311 10295 10279 10266 10252 10238 10226 10212 10200 10189 10178 10166 10155 10143 10132 10122
10674 10675 10676 10677 10678 10679 10680 10681 10681 10682 10682 10683 10684 10684 10684 10684 10684 10684 10683 10682 10681 10680 10678 10676 10675 10673 10671 10669 10666 10663 10660 10657 10654 10651 10648 10645 10641 10638 10634 10630 10625 10620 10615 10609 10601 10591 10583 10578 10570 10561 10553 10544 10536 10529 10521 10512 10503 10493 10482 10470 10456 10444 10434 10427 10416 10402 10392 10381 10361 10345 10334 10320 10305 10291 10275 10259 10245 10230 10217 10204 10192 10179 10167 10156 10144 10133 10122 10112
10674 10675 10676 10677 10678 10679 10680 10681 10682 10683 10683 10684 10684 10684 10684 10684 10684 10684 10683 10682 10681 10679 10678 10676 10675 10673 10671 10668 10666 10663 10660 10657 10654 10651 10648 10644 10640 10637 10633 10628 10624 10619 10613 10608 10601 10591 10581 10573 10566 10558 10549 10542 10533 10524 10515 10507 10498 10489 10480 10470 10459 10445 10430 10421 10416 10405 10394 10383 10362 10337 10323 10311 10295 10281 10265 10249 10235 10222 10208 10195 10181 10168 10156 10145 10134 10123 10111 10100
10674 10675 10677 10678 10679 10680 10681 10682 10683 10684 10685 10685 10685 10685 10685 10685 10684 10684 10683 10682 10681 10679 10678 10677 10675 10673 10671 10668 10665 10663 10660 10657 10654 10650 10647 10643 10639 10635 10631 10627 10622 10617 10612 10605 10598 10591 10581 10571 10565 10557 10549 10540 10530 10520 10510 10501 10492 10485 10476 10466 10457 10447 10429 10409 10397 10388 10378 10371 10358 10332 10310 10297 10283 10267 10253 10239 10225 10212 10197 10183 10170 10158 10146 10134 10123 10112 10102 10090
10675 10676 10677 10679 10680 10681 10682 10683 10684 10685 10685 10685 10685 10685 10685 10685 10684 10684 10683 10682 10681 10679 10678 10677 10675 10672 10670 10667 10665 10662 10659 10656 10653 10649 10646 10642 10638 10634 10630 10625 10620 10615 10610 10603 10596 10590 10581 10572 10563 10556 10547 10538 10528 10518 10508 10498 10489 10481 10472 10461 10447 10435 10422 10402 10383 10369 10357 10349 10345 10332 10310 10291 10276 10260 10245 10231 10216 10203 10190 10177 10164 10152 10139 10128 10119 10109 10098 10087
10676 10677 10678 10680 10681 10682 10683 10684 10685 10685 10686 10686 10686 10686 10686 10685 10684 10684 10683 10682 10681 10679 10678 10676 10674 10672 10670 10667 10664 10661 10659 10655 10652 10649 10645 10641 10637 10632 10627 10623 10618 10613 10607 10601 10595 10587 10579 10570 10560 10552 10544 10535 10527 10518 10510 10501 10493 10484 10472 10460 10447 10432 10418 10403 10383 10364 10351 10339 10329 10320 10304 10285 10270 10257 10242 10225 10210 10196 10184 10172 10159 10147 10135 10123 10111 10100 10090 10079
10677 10678 10680 10681 10682 10683 10684 10685 10686 10686 10686 10686 10686 10686 10686 10685 10684 10684 10683 10682 10680 10679 10678 10676 10674 10672 10669 10667 10664 10661 10658 10655 10652 10649 10645 10641 10636 10632 10627 10621 10616 10610 10604 10598 10592 10586 10578 10569 10560 10550 10542 10534 10525 10516 10507 10499 10490 10480 10469 10456 10445 10434 10422 10410 10394 10374 10355 10337 10319 10304 10295 10284 10270 10254 10236 10218 10203 10188 10175 10163 10150 10137 10125 10113 10100 10089 10080 10071
10678 10679 10681 10683 10684 10685 10685 10686 10686 10687 10687 10687 10687 10686 10686 10685 10685 10684 10683 10681 10680 10679 10677 10676 10674 10671 10669 10666 10664 10661 10658 10655 10652 10648 10644 10640 10636 10631 10626 10621 10614 10608 10601 10595 10590 10584 10577 10569 10559 10550 10541 10532 10521 10510 10500 10491 10481 10471 10463 10452 10439 10426 10413 10403 10394 10379 10358 10340 10323 10305 10291 10279 10265 10249 10232 10214 10198 10183 10169 10157 10144 10130 10118 10107 10096 10083 10072 10062
10679 10680 10682 10683 10684 10686 10686 10687 10687 10687 10687 10687 10687 10686 10686 10685 10685 10684 10683 10681 10680 10679 10677 10675 10673 10671 10668 10666 10663 10660 10657 10654 10651 10647 10643 10639 10635 10630 10625 10619 10613 10605 10599 10592 10586 10581 10576 10569 10561 10551 10540 10529 10521 10513 10503 10493 10483 10472 10462 10451 10437 10422 10406 10390 10377 10366 10353 10342 10333 10318 10296 10276 10260 10245 10229 10212 10195 10179 10165 10153 10142 10130 10117 10104 10092 10080 10067 10054
10680 10681 10683 10684 10685 10686 10687 10687 10687 10687 10687 10687 10687 10687 10686 10685 10685 10683 10682 10681 10680 10678 10677 10675 10673 10670 10668 10665 10663 10659 10656 10653 10650 10646 10642 10638 10633 10629 10623 10617 10611 10604 10597 10589 10582 10575 10571 10567 10563 10556 10548 10538 10529 10520 10509 10495 10484 10473 10461 10449 10436 10422 10408 10393 10376 10363 10350 10336 10327 10318 10300 10279 10260 10242 10224 10208 10193 10177 10162 10148 10136 10126 10114 10100 10087 10074 10062 10049
10682 10683 10685 10686 10686 10687 10687 10688 10688 10687 10688 10687 10687 10687 10686 10685 10684 10683 10682 10681 10679 10678 10676 10674 10672 10670 10668 10665 10662 10659 10656 10652 10649 10645 10641 10637 10632 10627 10621 10615 10609 10603 10595 10587 10579 10570 10563 10558 10555 10551 10548 10542 10533 10522 10510 10495 10480 10465 10452 10442 10433 10423 10412 10402 10388 10374 10359 10339 10321 10311 10299 10279 10259 10241 10225 10210 10194 10177 10161 10146 10132 10119 10106 10092 10079 10066 10055 10043
10683 10684 10686 10687 10687 10688 10688 10688 10688 10688 10688 10688 10687 10687 10686 10685 10684 10683 10682 10680 10679 10677 10676 10674 10672 10670 10667 10665 10662 10659 10655 10651 10648 10644 10639 10635 10630 10625 10620 10614 10608 10602 10595 10586 10577 10568 10559 10550 10544 10537 10529 10522 10513 10503 10494 10485 10474 10462 10449 10438 10430 10421 10412 10400 10387 10375 10364 10347 10323 10304 10290 10274 10258 10245 10230 10212 10194 10179 10164 10150 10134 10117 10101 10086 10072 10059 10045 10032
10684 10685 10687 10688 10688 10688 10688 10688 10688 10688 10688 10688 10687 10687 10686 10685 10684 10683 10681 10680 10678 10677 10675 10674 10672 10669 10667 10664 10661 10658 10654 10650 10647 10643 10638 10634 10629 10624 10618 10613 10607 10601 10594 10586 10578 10569 10559 10548 10539 10531 10522 10512 10503 10495 10486 10478 10470 10462 10453 10442 10430 10419 10406 10392 10381 10371 10363 10354 10335 10309 10287 10271 10255 10238 10223 10209 10196 10181 10163 10145 10128 10112 10096 10081 10066 10052 10038 10025
10685 10686 10687 10688 10688 10688 10688 10688 10688 10688 10688 10688 10687 10687 10686 10685 10684 10682 10681 10680 10678 10677 10675 10673 10671 10669 10666 10663 10660 10656 10653 10649 10645 10641 10637 10632 10628 10623 10617 10612 10606 10600 10593 10586 10578 10570 10561 10551 10540 10530 10522 10514 10506 10497 10487 10477 10469 10462 10453 10442 10430 10418 10405 10392 10382 10372 10359 10345 10329 10308 10287 10269 10249 10231 10218 10206 10192 10174 10153 10134 10118 10105 10091 10077 10065 10052 10040 10028
10685 10686 10687 10688 10688 10688 10688 10688 10688 10688 10688 10688 10687 10686 10686 10685 10683 10682 10681 10679 10678 10676 10675 10673 10670 10668 10665 10661 10658 10654 10651 10647 10643 10639 10635 10630 10626 10621 10616 10610 10605 10599 10593 10586 10578 10571 10563 10554 10544 10533 10524 10516 10506 10497 10489 10480 10470 10461 10451 10442 10430 10419 10408 10398 10386 10371 10350 10328 10311 10297 10281 10262 10245 10231 10217 10200 10180 10161 10146 10131 10118 10107 10095 10082 10068 10055 10042 10028
10685 10686 10687 10688 10688 10688 10688 10688 10688 10688 10688 10687 10687 10686 10685 10684 10683 10682 10680 10679 10677 10676 10674 10672 10669 10667 10663 10660 10657 10653 10649 10645 10641 10637 10633 10629 10624 10620 10615 10610 10604 10598 10592 10585 10578 10571 10564 10555 10547 10537 10527 10517 10508 10500 10491 10483 10473 10462 10453 10443 10431 10419 10409 10400 10386 10369 10350 10330 10311 10295 10279 10263 10248 10230 10209 10190 10175 10162 10151 10139 10124 10109 10096 10082 10067 10052 10037 10024
10686 10687 10687 10688 10688 10688 10688 10688 10688 10688 10687 10687 10687 10686 10685 10684 10683 10681 10680 10678 10677 10675 10673 10671 10668 10666 10663 10659 10656 10653 10649 10645 10641 10637 10633 10628 10624 10619 10614 10608 10603 10596 10590 10584 10577 10571 10564 10556 10548 10539 10529 10520 10512 10502 10492 10482 10473 10464 10455 10445 10434 10424 10414 10401 10384 10367 10351 10335 10317 10299 10284 10270 10252 10229 10206 10190 10178 10165 10151 10137 10123 10105 10088 10074 10061 10046 10033 10020
10686 10687 10687 10687 10687 10687 10687 10687 10687 10687 10687 10687 10686 10685 10684 10683 10682 10681 10679 10678 10676 10674 10672 10670 10668 10665 10662 10659 10656 10652 10649 10645 10641 10636 10632 10628 10623 10618 10613 10607 10601 10594 10588 10582 10576 10570 10563 10556 10549 10541 10532 10522 10513 10505 10495 10484 10474 10467 10459 10448 10437 10424 10410 10394 10375 10357 10342 10330 10318 10304 10286 10266 10246 10229 10212 10193 10175 10157 10140 10124 10111 10099 10084 10068 10055 10043 10030 10018
10686 10686 10687 10687 10687 10687 10687 10687 10687 10686 10686 10686 10686 10685 10684 10683 10682 10680 10679 10677 10675 10673 10671 10669 10667 10664 10661 10658 10655 10652 10648 10644 10640 10635 10631 10626 10621 10616 10611 10605 10599 10593 10587 10581 10575 10569 10562 10555 10548 10541 10532 10523 10514 10504 10494 10487 10480 10470 10458 10447 10435 10419 10400 10383 10369 10355 10342 10328 10314 10299 10281 10263 10247 10230 10211 10189 10166 10147 10131 10116 10103 10092 10081 10067 10053 10041 10029 10016